Regional Weather Roundup
Issued by NWS

Home | Current Version | Previous Version | Graphics & Text | Print | Product List | Glossary On
Versions: 1 2 3 4 5 6 7 8 9 10 11 12 13 14 15 16 17 18 19 20 21 22 23 24 25 26 27 28 29 30 31 32 33 34 35 36 37 38 39 40 41 42 43 44 45 46 47 48 49 50
000
ASUS43 KLOT 271606
RWRIL

ILLINOIS REGIONAL WEATHER ROUNDUP
NATIONAL WEATHER SERVICE CHICAGO/ROMEOVILLE IL
1000 AM CST THU NOV 27 2014

NOTE: "FAIR" INDICATES FEW OR NO CLOUDS BELOW 12,000 FEET WITH NO
SIGNIFICANT WEATHER AND/OR OBSTRUCTIONS TO VISIBILITY.

* THESE STATIONS ARE NOT UNDER NWS QUALITY CONTROL. THEY ALSO MAY NOT
  REPORT WEATHER SUCH AS PRECIPITATION OR FOG.

ILZ001-002-007-009-015-016-024-271700-
NORTHWEST ILLINOIS

CITY           SKY/WX    TMP DP  RH WIND       PRES   REMARKS
MOLINE         LGT SNOW  21  15  78 NW20      30.44R WCI   6
STERLING*      CLOUDY    25  18  74 NW16      30.39R WCI  12
SAVANNA*       FLURRIES  25  16  68 NW13      30.40S WCI  13
$$

ILZ003-004-008-010-011-017-018-271700-
NORTH CENTRAL ILLINOIS

CITY           SKY/WX    TMP DP  RH WIND       PRES   REMARKS
ROCKFORD       FLURRIES  24  16  71 NW10      30.38R WCI  14
FREEPORT*      LGT SNOW  23  18  83 NW7       30.39R WCI  14
ROCHELLE*      CLOUDY    24  17  73 NW15      30.37R WCI  12
DE KALB*       CLOUDY    23  16  74 NW14G20   30.34R WCI  11
PERU*          CLOUDY    27  22  82 NW13      30.39R WCI  16
$$

ILZ005-006-012>014-019>023-271700-
NORTHEAST ILLINOIS

CITY           SKY/WX    TMP DP  RH WIND       PRES   REMARKS
CHICAGO-OHARE  PTSUNNY   26  18  71 NW13      30.32R WCI  15
CHICAGO-MIDWAY PTSUNNY   28  20  71 NW15      30.33R WCI  16
AURORA         CLOUDY    26  18  71 NW16      30.35R WCI  14
LANSING*       CLOUDY    28  21  75 NW10G16   30.32R WCI  18
JOLIET*        CLOUDY    26  20  77 NW10G16   30.36R WCI  17
WAUKEGAN       CLOUDY    23  17  78 W13G21    30.32R WCI  11
DUPAGE AIRPORT CLOUDY    25  19  78 NW16      30.33R WCI  12
KANKAKEE*      CLOUDY   N/A N/A N/A NW13G21   30.35S
WHEELING       PTSUNNY   25  18  74 NW15G24   30.34R WCI  13
MORRIS*        PTSUNNY   27  23  84 NW14      30.36R WCI  16
ROMEOVILLE*    CLOUDY    26  20  77 NW16G23   30.34R WCI  13
NORTHERLY ISL    N/A     28  20  71 NW9         N/A  WCI  19
$$

LMZ740>746-271700-
SOUTHERN LAKE MICHIGAN

STATION/POSITION SKY/WX   TEMP    WIND        PRES    VSBY  WAVE
                          AIR SEA DIR/SP/G                  HT/PER
                          (F)     (DEG/KT/KT) (MB)    (MI)  (FT/S)
SOUTHERN BUOY              31 42  310/ 21/ 25 1025.4R         5/ 6
WAUKEGAN HARBOR            23     310/ 19/ 23   N/A
HARRISON CRIB              26     310/ 13/ 18   N/A
BURNHAM HARBOR             28     270/  8/ 14   N/A
CALUMET HARBOR             27     280/ 10/ 14 1025.4R
MICHIGAN CITY              30     280/ 18/ 20   N/A
$$

ILZ025>027-034>036-040-047-049-050-058-095>099-271700-
WEST-CENTRAL ILLINOIS

CITY           SKY/WX    TMP DP  RH WIND       PRES   REMARKS
QUINCY         CLOUDY    24  16  71 NW16      30.48R WCI  11
GALESBURG*     FLURRIES  21  17  86 W17       30.44R WCI   6
MACOMB*        PTSUNNY   20  16  84 NW20      30.48R WCI   5
JACKSONVILLE*  CLOUDY    29  20  71 NW14G22   30.46R WCI  18
PITTSFIELD*    CLOUDY    28  19  71 W12G18    30.48R WCI  17
$$

ILZ028>032-037-038-041>044-048-051>054-059>061-271700-
CENTRAL ILLINOIS

CITY           SKY/WX    TMP DP  RH WIND       PRES   REMARKS
PONTIAC        CLOUDY    28  23  82 NW14      30.39R WCI  17
BLOOMINGTON    LGT SNOW  26  22  85 W12       30.40R FOG     WCI  16
DECATUR        CLOUDY    28  22  78 NW12      30.42R HAZE    WCI  18
PEORIA         LGT SNOW  27  20  75 NW10      30.42R WCI  17
LACON*         LGT SNOW  26  22  83 W9        30.40R WCI  17
LINCOLN*       LGT SNOW  29  24  81 W6        30.44R WCI  23
SPRINGFIELD    FLURRIES  28  22  78 W10       30.45R WCI  19
TAYLORVILLE    CLOUDY    28  21  74 W18       30.45R WCI  16
$$

ILZ033-039-045-046-055>057-062-063-271700-
EAST-CENTRAL ILLINOIS

CITY           SKY/WX    TMP DP  RH WIND       PRES   REMARKS
CHAMPAIGN      CLOUDY    27  21  78 NW14      30.39R WCI  16
DANVILLE*      CLOUDY    26  22  84 W10       30.34R FOG     WCI  16
RANTOUL*       CLOUDY    28  22  78 NW15G21   30.38R WCI  16
MATTOON        CLOUDY    27  21  78 NW17      30.40R WCI  14
PARIS*         CLOUDY    28  24  85 W15       30.40R FOG     WCI  16
$$

ILZ079-100>102-271700-
SOUTHWEST ILLINOIS

CITY           SKY/WX    TMP DP  RH WIND       PRES   REMARKS
ALTON          CLOUDY    30  23  74 NW14      30.48R WCI  20
BELLEVILLE     CLOUDY    31  29  91 NW7       30.48S WCI  24
CAHOKIA*       CLOUDY    32  24  72 NW14G22   30.49S WCI  22
SPARTA*        CLOUDY    29  26  88 NW5       30.50S WCI  24
$$

ILZ064>066-069>071-074>076-080>082-084>086-088>090-092>094-271700-
SOUTH-CENTRAL ILLINOIS

CITY           SKY/WX    TMP DP  RH WIND       PRES   REMARKS
CARBONDALE     CLOUDY    30  24  78 N7        30.50R HAZE    WCI  23
CAIRO*         CLOUDY    35  27  71 N13       30.51R WCI  26
EFFINGHAM*     CLOUDY    28  20  73 W10       30.44R WCI  19
MARION         CLOUDY    30  25  80 NW14      30.51R WCI  20
MT. VERNON     CLOUDY    28  21  74 CALM      30.49R
CENTRALIA*     CLOUDY    28  24  85 NW6       30.48R FOG     WCI  21
SALEM*           N/A     30  25  81 NW9       30.47R HAZE    WCI  21
METROPOLIS*    CLOUDY    32  26  77 NW17        N/A  WCI  21
$$

ILZ067-068-072-073-078-083-087-091-271700-
SOUTHEAST ILLINOIS

CITY           SKY/WX    TMP DP  RH WIND       PRES   REMARKS
LAWRENCEVILLE  CLOUDY    27  22  81 W14       30.43R HAZE    WCI  16
FLORA*         MOSUNNY   27  23  84 NW12G18   30.47R FOG     WCI  17
FAIRFIELD*     CLOUDY    28  23  82 W5        30.47R HAZE    WCI  23
HARRISBURG*    PTSUNNY   30  25  82 NW15      30.50R HAZE    WCI  19
ROBINSON*      CLOUDY    27  24  85 NW10      30.44R WCI  18
CARMI*         PTSUNNY   31  28  88 W16       30.47R FOG     WCI  20
$$

ABBREVIATIONS USED IN REMARKS
   TC - TEMPERATURE IN CELSIUS
  WCI - WIND CHILL INDEX
   HX - HEAT INDEX
  VSB - VISIBILITY
$$




USA.gov is the U.S. government's official web portal to all federal, state and local government web resources and services.